Regional Weather Roundup
Issued by NWS

Home | Current Version | Previous Version | Graphics & Text | Print | Product List | Glossary Off
Versions: 1 2 3 4 5 6 7 8 9 10 11 12 13 14 15 16 17 18 19 20 21 22 23 24 25 26 27 28 29 30 31 32 33 34 35 36 37 38 39 40 41 42 43 44 45 46 47 48 49 50

000
ASUS43 KMKX 231321
RWRWI

WISCONSIN REGIONAL WEATHER ROUNDUP
NATIONAL WEATHER SERVICE MILWAUKEE/SULLIVAN WI
800 AM CDT SAT SEP 23 2017

NOTE: "FAIR" INDICATES FEW OR NO CLOUDS BELOW 12,000 FEET WITH NO
SIGNIFICANT WEATHER AND/OR OBSTRUCTIONS TO VISIBILITY.

WIZ001-002-006>008-014>016-023>028-231400-
NORTHWEST WISCONSIN

CITY           SKY/WX    TMP DP  RH WIND       PRES   REMARKS
SUPERIOR ARPT  MOCLDY    63  63 100 CALM      29.90R
ASHLAND        PTSUNNY   74  67  78 S10       29.92R
HAYWARD        SUNNY     72  66  81 S8        29.96R
SIREN          CLEAR     73  66  78 S10       29.94R
CUMBERLAND     SUNNY     70  64  83 S10       29.98R
RICE LAKE      SUNNY     70  66  87 SE5       29.99S
CHETEK         SUNNY     71  67  89 S3        29.99R
LADYSMITH      SUNNY     72  66  82 S8        30.02R
EAU CLAIRE     SUNNY     73  66  78 S8        29.98R
MENOMONIE      SUNNY     72  67  84 SE3       29.98R
NEW RICHMOND   CLEAR     72  65  79 S8        29.98R
OSCEOLA        PTCLDY    73  67  80 S8        29.99R
$$

WIZ003>005-009-010-017-018-231400-
NORTH CENTRAL WISCONSIN

CITY           SKY/WX    TMP DP  RH WIND       PRES   REMARKS
MANITOWISH WTR NOT AVBL
ARBOR VITAE    SUNNY     72  68  87 S9        30.02S
WOODRUFF       SUNNY     72  68  87 S9        30.02S
RHINELANDER    SUNNY     71  66  84 SW10      30.04S
EAGLE RIVER    SUNNY     69  66  90 SW6       30.02S
LAND O LAKES   SUNNY     69  65  87 S5        30.03R
PHILLIPS       MOSUNNY   69  67  93 S5        30.01R
TOMAHAWK       SUNNY     66  64  92 CALM      30.04S
MEDFORD        SUNNY     67  64  91 S7        30.03S
MERRILL        SUNNY     71  65  83 S6        30.05S
$$

WIZ029-030-035-036-043>047-231400-
CENTRAL WISCONSIN

CITY           SKY/WX    TMP DP  RH WIND       PRES   REMARKS
WAUSAU         SUNNY     70  65  84 S6        30.03S
MOSINEE        MOSUNNY   66  64  94 S7        30.06S
MARSHFIELD     SUNNY     68  63  84 S8        30.04S
STEVENS POINT  SUNNY     69  65  86 S5        30.06S
WAUPACA        SUNNY     67  67  98 E3        30.06R FOG
WAUTOMA        SUNNY     64  62  93 CALM      30.06S
WISC RAPIDS    SUNNY     72  65  78 S5        30.07R
CAMP DOUGLAS   MOSUNNY   68  66  94 CALM      30.05R
$$

WIZ011>013-019>022-031-037>040-048>050-231400-
NORTHEAST WISCONSIN

CITY           SKY/WX    TMP DP  RH WIND       PRES   REMARKS
ANTIGO         SUNNY     69  65  85 SW7       30.06S
SHAWANO        SUNNY     70  65  86 CALM      30.04S
OCONTO         SUNNY     67  64  90 CALM      30.04R
STURGEON BAY   SUNNY     74  65  73 SW6       30.05S
GREEN BAY      SUNNY     71  67  87 SW3       30.05R
MANITOWOC      SUNNY     68  66  93 CALM      30.07R
APPLETON       MOSUNNY   70  61  73 VRB5      30.05R
CLINTONVILLE   SUNNY     68  64  88 CALM      30.05R
OSHKOSH        SUNNY     71  65  81 S7        30.06R
$$

WIZ032>034-041-042-053>061-231400-
SOUTHWEST WISCONSIN

CITY           SKY/WX    TMP DP  RH WIND       PRES   REMARKS
LA CROSSE      SUNNY     75  66  73 SE5       30.02R
SPARTA         SUNNY     68  64  87 CALM      30.05R
VIROQUA        SUNNY     70  66  85 S6        30.06S
BOSCOBEL       SUNNY     68  65  90 CALM      30.05R
PRAIRIE DU CHI SUNNY     70  62  76 SE3       30.04R
PLATTEVILLE    SUNNY     71  67  87 SE5       30.07S
$$

WIZ056-057-062-063-064-067-068-231400-
SOUTH CENTRAL WISCONSIN

CITY           SKY/WX    TMP DP  RH WIND       PRES   REMARKS
REEDSBURG      SUNNY     70  65  84 CALM      30.06S
BARABOO/DELLS  SUNNY     71  64  76 CALM      30.07R
LONE ROCK      MOSUNNY   67  65  93 CALM      30.06R FOG
MINERAL POINT  SUNNY     70  68  94 SE3       30.09R
MADISON        MOSUNNY   70  65  84 CALM      30.07R
MIDDLETON      SUNNY     69  67  94 CALM      30.08R
WATERTOWN      SUNNY     69  67  95 CALM      30.08R
MONROE         SUNNY     72  63  73 S5        30.09R
JANESVILLE     SUNNY     66  66 100 CALM      30.08R
$$

WIZ051-052-058>065-066-070>072-231400-
SOUTHEAST WISCONSIN

CITY           SKY/WX    TMP DP  RH WIND       PRES   REMARKS
MILWAUKEE      MOSUNNY   78  66  66 SW5       30.08R HX  80
WAUKESHA       SUNNY     70  63  78 CALM      30.10R
MILWAUKEE/TIMM SUNNY     72  63  73 CALM      30.09R
RACINE         SUNNY     75  67  76 S3        30.10R
BURLINGTON     SUNNY     68  68  99 CALM      30.09S
KENOSHA        SUNNY     75  66  73 S3        30.09R
FOND DU LAC    SUNNY     73  64  73 S5        30.07R
SHEBOYGAN      SUNNY     70  68  93 CALM      30.07R
WEST BEND        N/A     68  68 100 CALM      30.08S
JUNEAU         SUNNY     68  65  88 SE5       30.09S
$$

LSZ147-162-231400-
LAKE SUPERIOR

STATION/POSITION TIME  TEMP    WIND        PRES    WAVE
                       AIR SEA DIR/SP/G            HT/PER
                 (UTC) (F)     (DEG/KT/KT) (MB)    (FT/S)
W MID LAKE BUOY  1250   62 54  220/ 12/ 12 1011.5F   1/ 4
DEVILS ISLAND    1300   72     190/  7/  8 1011.8R
SAXON HARBOR     1240   77     190/  6/ 12 1012.2R
$$

LMZ867-665-643>646-231400-
LAKE MICHIGAN

STATION/POSITION TIME  TEMP    WIND        PRES    WAVE
                       AIR SEA DIR/SP/G            HT/PER
                 (UTC) (F)     (DEG/KT/KT) (MB)    (FT/S)
S GREEN BAY BUOY 1300   69 67  210/  6/  6 1017.0R
N MID LAKE BUOY  1250   68 66  190/ 12/ 14 1017.5R   2/ 4
NORTHPORT PIER   1240   71     150/  2/  4 1016.6S
KEWAUNEE LAKESHO 1254   65     180/  2/  4 1016.8R
SHEBOYGAN LAKESH 1300   70     170/  9/  9 1017.7R
PORT WASHINGTON  1240   76     270/  2/  3 1019.0R
ATWATER BUOY     1209   72 66  130/  6/  8 1018.6
MILWAUKEE LAKESH 1300   73     110/  7/  7   N/A
S MID LAKE BUOY  1250   72 70  130/  6/  8 1019.1R   0
KENOSHA   LAKESH 1300   75     180/  4/  5 1018.6
$$

TC  - TEMPERATURE IN CELSIUS
VSB - VISIBILITY IN STATUTE MILES
WCI - WIND CHILL INDEX
HX  - HEAT INDEX





USA.gov is the U.S. government's official web portal to all federal, state and local government web resources and services.